Morrisville, VT

9:20 AM EST on December 11, 2019 (GMT -0500)
Morrisville Stowe State

Weather History for KMVL - November, 2019

Change the Weather History Date:

Friday, November 22, 2019

  Actual Average Record
Temperature  
Mean Temperature 36 °F 33 °F  
Max Temperature 46 °F 41 °F 62 °F (1999)
Min Temperature 27 °F 24 °F 2 °F (2018)
Degree Days  
Heating Degree Days 28 32  
Month to date heating degree days 791 623  
Since 1 July heating degree days 1610 1554  
Cooling Degree Days 0 0  
Month to date cooling degree days 0 0  
Year to date cooling degree days 254 265  
Moisture  
Dew Point 31 °F    
Average Humidity 79    
Maximum Humidity 96    
Minimum Humidity 58    
Precipitation  
Precipitation 0.12 in 0.11 in 0.56 in (2007)
Month to date precipitation 1.33 2.28  
Year to date precipitation 40.36 32.52  
Sea Level Pressure  
Sea Level Pressure 29.66 in    
Wind  
Wind Speed 6 mph ()    
Max Wind Speed 20 mph    
Max Gust Speed 31 mph    
Visibility 8.9 miles    
Events Rain , Snow    
T = Trace of Precipitation, MM = Missing Value Source: Averaged Metar Reports

Daily Weather History Graph

Daily Weather History Graph

Search for Another Location

Airport or City:

Astronomy

Nov. 22, 2019 Rise Set
Actual Time 6:55 AM EST 4:16 PM EST
Civil Twilight 6:23 AM EST 4:49 PM EST
Nautical Twilight 5:47 AM EST 5:24 PM EST
Astronomical Twilight 5:13 AM EST 5:59 PM EST
Moon 1:43 AM EST (11/22) 2:29 PM EST (11/22)
Length of Visible Light 10h 25m
Length of Day
9h 21m
Waning Crescent, 20% of the Moon is Illuminated
Nov 22
Waning Crescent
Nov 26
New
Dec 4
First Quarter
Dec 12
Full
Dec 18
Last Quarter

Hourly Weather History & Observations

Time (EST) Temp. Windchill Dew Point Humidity Pressure Visibility Wind Dir Wind Speed Gust Speed Precip Events Conditions
12:54 AM 33.1 °F 27.7 °F 32.0 °F 96% 29.82 in 10.0 mi South 5.8 mph - 0.02 in   Overcast
1:54 AM 34.0 °F 26.6 °F 32.0 °F 92% 29.78 in 10.0 mi SSE 9.2 mph - 0.00 in   Overcast
2:54 AM 35.1 °F 30.1 °F 33.1 °F 92% 29.75 in 10.0 mi ESE 5.8 mph - 0.00 in   Overcast
3:54 AM 35.1 °F 28.6 °F 33.1 °F 92% 29.72 in 10.0 mi SSW 8.1 mph - 0.00 in   Overcast
4:54 AM 37.9 °F 31.5 °F 34.0 °F 86% 29.68 in 10.0 mi South 9.2 mph - 0.00 in Rain Light Rain
5:54 AM 41.0 °F 35.2 °F 36.0 °F 82% 29.65 in 10.0 mi SSW 9.2 mph - 0.00 in   Overcast
6:25 AM 42.1 °F 37.7 °F 36.0 °F 79% 29.61 in 10.0 mi South 6.9 mph - N/A   Overcast
6:54 AM 41.0 °F - 36.0 °F 82% 29.60 in 10.0 mi Calm Calm - N/A   Overcast
7:54 AM 39.9 °F 36.7 °F 36.0 °F 86% 29.59 in 10.0 mi Variable 4.6 mph - N/A   Overcast
8:42 AM 41.0 °F 39.0 °F 37.0 °F 86% 29.54 in 10.0 mi South 3.5 mph - N/A   Overcast
8:54 AM 42.1 °F - 37.9 °F 85% 29.56 in 10.0 mi Calm Calm - N/A   Overcast
9:35 AM 44.1 °F 42.5 °F 39.0 °F 82% 29.52 in 10.0 mi SSW 3.5 mph - N/A   Overcast
9:54 AM 45.0 °F 41.8 °F 39.0 °F 80% 29.54 in 10.0 mi WSW 5.8 mph - N/A   Overcast
10:54 AM 44.1 °F 36.5 °F 39.9 °F 85% 29.56 in 10.0 mi SSW 17.3 mph 23.0 mph 0.02 in Rain Light Rain
11:54 AM 43.0 °F 38.8 °F 36.0 °F 76% 29.55 in 10.0 mi WSW 6.9 mph 17.3 mph 0.01 in   Overcast
12:37 PM 41.0 °F 34.7 °F 36.0 °F 82% 29.53 in 10.0 mi SW 10.4 mph - 0.00 in Rain Light Rain
12:54 PM 39.9 °F 35.1 °F 36.0 °F 86% 29.56 in 4.0 mi WSW 6.9 mph - 0.02 in Rain Light Rain
1:33 PM 39.0 °F 33.4 °F 35.1 °F 86% 29.53 in 10.0 mi SW 8.1 mph - 0.02 in Rain Light Rain
1:54 PM 39.0 °F 34.8 °F 35.1 °F 86% 29.55 in 10.0 mi SW 5.8 mph - 0.02 in   Overcast
2:54 PM 39.9 °F 35.8 °F 30.9 °F 70% 29.56 in 10.0 mi Variable 5.8 mph 24.2 mph 0.01 in   Overcast
3:19 PM 36.0 °F 28.0 °F 30.9 °F 82% 29.56 in 5.0 mi WNW 11.5 mph 20.7 mph 0.01 in Snow Light Snow
3:54 PM 35.1 °F 26.9 °F 28.0 °F 76% 29.62 in 10.0 mi NNW 11.5 mph 23.0 mph 0.01 in   Overcast
4:54 PM 32.0 °F - 23.0 °F 69% 29.67 in 9.0 mi Calm Calm - 0.00 in Snow Light Snow
6:54 PM 30.0 °F 22.4 °F 21.0 °F 69% 29.77 in 7.0 mi WNW 8.1 mph - 0.00 in Snow Light Snow
7:10 PM 30.0 °F 23.2 °F 21.9 °F 72% 29.74 in 4.0 mi WNW 6.9 mph - 0.00 in Snow Light Snow
7:37 PM 28.9 °F 21.1 °F 23.0 °F 78% 29.76 in 2.5 mi WNW 8.1 mph - 0.00 in Snow Light Snow
7:54 PM 28.9 °F 23.9 °F 21.9 °F 75% 29.80 in 4.0 mi Variable 4.6 mph - 0.00 in Snow Light Snow
8:10 PM 30.0 °F 21.1 °F 19.9 °F 66% 29.77 in 9.0 mi NW 10.4 mph 23.0 mph 0.01 in Snow Light Snow
8:54 PM 30.0 °F 19.1 °F 17.1 °F 59% 29.81 in 10.0 mi NW 15.0 mph 31.1 mph 0.01 in   Overcast
9:54 PM 28.9 °F 25.2 °F 16.0 °F 58% 29.83 in 10.0 mi WNW 3.5 mph - N/A   Mostly Cloudy
11:54 PM 27.0 °F 19.5 °F 14.0 °F 58% 29.87 in 10.0 mi NW 6.9 mph - N/A   Overcast